Regional Weather Roundup
Issued by NWS

Home | Current Version | Previous Version | Graphics & Text | Print | Product List | Glossary On
Versions: 1 2 3 4 5 6 7 8 9 10 11 12 13 14 15 16 17 18 19 20 21 22 23 24 25 26 27 28 29 30 31 32 33 34 35 36 37 38 39 40 41 42 43 44 45 46 47 48 49 50
000
ASUS44 KFWD 290715
RWRTX
NORTH TEXAS HOURLY WEATHER ROUNDUP
NATIONAL WEATHER SERVICE FORT WORTH TX
200 AM CDT SAT APR 29 2017

NOTE: "FAIR" INDICATES FEW OR NO CLOUDS BELOW 12,000 FEET WITH NO
SIGNIFICANT WEATHER AND/OR OBSTRUCTIONS TO VISIBILITY.

TXZ118-119-290800-
DALLAS/FORT WORTH METROPLEX

CITY           SKY/WX    TMP DP  RH WIND       PRES   REMARKS
DFW AIRPORT    CLOUDY    79  72  79 S20G30    29.60S
DALLAS LOVE    CLOUDY    79  71  76 S20       29.62S
FTW MEACHAM    CLOUDY    79  72  79 SE21G26   29.60S
DAL-EXECUTIVE  CLOUDY    77  72  84 SE14G22   29.62S
FTW-ALLIANCE   CLOUDY    78  71  79 S18G33    29.59S
FTW-NAS-JRB    CLOUDY    80  71  74 S20G28    29.60
FTW-SPINKS     CLOUDY    79  70  73 S13G21    29.63R HAZE
ARLINGTON      CLOUDY    78  70  76 SE21G30   29.61S
GRAND PRAIRIE  MOCLDY    77  69  74 SE13G21   29.63S
ADDISON        CLOUDY    77  71  81 S18G28    29.64S
MESQUITE       MOCLDY    76  71  83 SE16      29.64S
LANCASTER      CLOUDY    76  71  84 SE15      29.64S
$$

TXZ091>094-102>105-117-120-121-131>134-290800-
NORTH CENTRAL TEXAS

CITY           SKY/WX    TMP DP  RH WIND       PRES   REMARKS
SHRMAN/DENISON CLOUDY    76  70  81 SE18G25   29.63F
GAINESVILLE    CLOUDY    76  71  82 S14G24    29.63S
BOWIE          PTCLDY    77  70  79 SE12G20   29.59F
BRIDGEPORT     CLOUDY    77  68  75 SE10G16   29.61F
DECATUR        PTCLDY    77  70  78 SE10G16   29.62S
DENTON         CLOUDY    78  72  81 S14       29.60S
MCKINNEY       CLOUDY    77  72  84 S17G24    29.64R
BONHAM         CLOUDY    75  70  83 SE14G20   29.65S
GREENVILLE     CLOUDY    79  72  78 SE14      29.66S
ROCKWALL       MOCLDY    77  71  83 S16G25    29.64R
TERRELL        PTCLDY    77  70  79 S14G22    29.65S
WAXAHACHIE     CLOUDY    76  71  85 SE14G20   29.65S
CLEBURNE       CLOUDY    77  73  88 S17G33    29.62F
GRANBURY       CLOUDY    79  70  73 SE14G22   29.60F
$$

TXZ083>090-098>101-113>116-127>130-139>142-154-155-290800-
WESTERN NORTH TEXAS

CITY           SKY/WX    TMP DP  RH WIND       PRES   REMARKS
WICHITA FALLS  MOCLDY    73  67  81 SE17      29.52F
VERNON         MOCLDY    75  64  67 SE21G26   29.48F
ABILENE        CLOUDY    74  68  81 SE14      29.54F
ABILENE-DYESS  CLOUDY    76  68  77 SE14      29.52S
GRAHAM         PTCLDY    76  69  79 SE10G17   29.55F
BRECKENRIDGE   CLOUDY    77  67  69 SE12G18   29.54F HAZE
CISCO          PTCLDY    75  68  78 SE20G26   29.56F
RANGER         PTCLDY    74  68  82 S18G24    29.58F
MINERAL WELLS  CLOUDY    76  68  76 SE14      29.57F
STEPHENVILLE   CLOUDY    75  68  78 S13G23    29.62F
COMANCHE       CLOUDY    74  69  84 SE12G21   29.59F
BROWNWOOD      CLOUDY    75  68  78 SE20G28   29.57F
COLEMAN        MOCLDY    76  66  71 S18G25    29.56S
$$

TXZ143>147-156>162-174-175-290800-
CENTRAL TEXAS

CITY           SKY/WX    TMP DP  RH WIND       PRES   REMARKS
WACO           CLOUDY    77  71  82 SE12G24   29.62S
WACO-MCGREGOR  PTCLDY    76  71  85 SE14G23   29.62F
HILLSBORO      CLOUDY    77  72  83 S17       29.64S
CORSICANA      CLOUDY    77  72  84 S12       29.66F
MEXIA          CLOUDY    75  70  84 SE14G20   29.64F
HEARNE         CLOUDY    76  74  93 SE8G17    29.65F
CAMERON        CLOUDY    77  72  83 SE9       29.63F
TEMPLE         PTCLDY    75  72  88 SE16G23   29.63S
KILLEEN        CLOUDY    75  70  83 SE20      29.60F
KILLEEN-SKYLRK CLOUDY    76  71  85 SE22G30   29.61F
FORT HOOD      CLOUDY    74  71  88 S16G25    29.59S
GATESVILLE     CLOUDY    75  70  83 SE13G18   29.64S
HAMILTON       CLOUDY    76  70  81 S16G25    29.62F
LAMPASAS       MOCLDY    76  71  86 S13G18    29.61S
$$

TXZ095>097-106>112-122>126-135>138-148>153-164>167-290800-
EAST TEXAS

CITY           SKY/WX    TMP DP  RH WIND       PRES   REMARKS
PARIS          PTCLDY    75  70  83 S14       29.67F
SULPHUR SPRNGS CLEAR     77  71  80 S10G16    29.69S
MOUNT PLEASANT MOCLDY    78  70  76 SE8       29.70F
GILMER         CLOUDY    78  71  78 SE7G16    29.70S
MINEOLA        CLOUDY    77  72  83 SE7G16    29.68S
TYLER          CLOUDY    78  73  84 S14       29.68F
LONGVIEW       LGT RAIN  79  75  87 S14       29.70S
MARSHALL       CLOUDY    75  72  90 SE8       29.74S
ATHENS         CLOUDY    77  70  78 SE8       29.65F
PALESTINE      CLOUDY    79  73  83 SE8G16    29.69S
JACKSONVILLE   CLOUDY    78  73  84 S13G20    29.72S
HENDERSON      CLOUDY    79  71  78 S10G21    29.72S
CENTER         CLOUDY    80  78  95 SE12G21   29.73F
NACOGDOCHES    CLOUDY    79  72  78 S12       29.70R
LUFKIN         CLOUDY    78  73  84 SE13G21   29.71S
$$

SUPPLEMENTAL OBSERVATIONS (CENTRAL)

CITY           SKY/WX    TMP DP  RH WIND       PRES   REMARKS
DENISON DAM      N/A     77  68  73 SE13        N/A
PAT MAYSE LAKE   N/A     75  72  88 SE16        N/A
GREENVILLE       N/A     75  68  78 SE8G17      N/A
CEDAR HILL       N/A     77  70  78 SE13G25     N/A
LAKE LIMESTONE   N/A     75  70  83 SE6G15      N/A
MCGREGOR         N/A     75  70  83 S17G24      N/A
TEMPLE           N/A     75  70  83 SE12        N/A
$$

SUPPLEMENTAL OBSERVATIONS (WEST)

CITY           SKY/WX    TMP DP  RH WIND       PRES   REMARKS
MILLERS CREEK    N/A     73  66  78 SE13        N/A
POSSUM KINGDOM   N/A     75  68  78 SE10        N/A
GRANBURY         N/A     79  70  73 SE17G25     N/A
COMANCHE         N/A     73  68  83 SE16G23     N/A
HAMBY            N/A     75  66  73 SE9G20      N/A
IVIE RESERVOIR   N/A     75  66  73 SE14        N/A
COLORADO BEND    N/A     73  68  83 S12G23      N/A
$$

SUPPLEMENTAL OBSERVATIONS (EAST)

CITY           SKY/WX    TMP DP  RH WIND       PRES   REMARKS
CLARKSVILLE      N/A     77  70  78 S13         N/A
TEXARKANA        N/A     79  75  89 SE5         N/A
LINDEN           N/A     75  72  88 S5          N/A
CADDO LAKE       N/A     79  73  83 SE6G16      N/A
GILMER           N/A     79  70  73 S8G16       N/A
HENDERSON        N/A     79  73  83 S8G21       N/A
LUFKIN           N/A     79  72  78 MISG        N/A
N SABINE NF      N/A     75  73  94 MISG        N/A
S SABINE NF      N/A     75  72  88 SE5G15      N/A
$$

SUPPLEMENTAL OBSERVATIONS ARE A COLLECTION OF AUTOMATED INSTRUMENTS
THAT ARE MAINTAINED BY A VARIETY OF FEDERAL AND STATE AGENCIES.
CERTAIN ELEMENTS...SUCH AS HUMIDITY VALUES AND SUSTAINED WIND
SPEEDS...MAY BE APPROXIMATED.




USA.gov is the U.S. government's official web portal to all federal, state and local government web resources and services.